Weather History for Columbia Owens, SC

Change the Weather History Date:

Monday, April 8, 2013

  Actual Average Record
Temperature  
Mean Temperature 68 °F 63 °F  
Max Temperature 82 °F 75 °F 88 °F (1999)
Min Temperature 53 °F 51 °F 29 °F (2007)
Degree Days  
Heating Degree Days 0 4  
Month to date heating degree days 55 38  
Since 1 July heating degree days 2146 2241  
Cooling Degree Days 3 2  
Month to date cooling degree days 6 14  
Year to date cooling degree days 41 32  
Growing Degree Days 18 (Base 50)    
Moisture  
Dew Point 53 °F    
Average Humidity 64    
Maximum Humidity 93    
Minimum Humidity 33    
Precipitation  
Precipitation 0.00 in 0.10 in 0.53 in (2003)
Month to date precipitation 1.56 0.84  
Year to date precipitation 12.07 12.00  
Sea Level Pressure  
Sea Level Pressure 30.14 in    
Wind  
Wind Speed 3 mph (SSW)    
Max Wind Speed 13 mph    
Max Gust Speed 17 mph    
Visibility 10 miles    
Events      
T = Trace of Precipitation, MM = Missing Value Source: NWS Daily Summary

Daily Weather History Graph

Daily Weather History Graph

Search for Another Location

Airport:

Trip Planner

Search our weather history database for the weather conditions in past years. The results will help you decide how hot, cold, wet, or windy it might be!

Date:

Astronomy

Apr. 08, 2013 Rise Set
Actual Time 7:01 AM EDT 7:50 PM EDT
Civil Twilight 6:36 AM EDT 8:15 PM EDT
Nautical Twilight 6:06 AM EDT 8:45 PM EDT
Astronomical Twilight 5:35 AM EDT 9:16 PM EDT
Moon 5:46 AM EDT (4/8) 6:25 PM EDT (4/8)
Length of Visible Light 13h 39m
Length of Day
12h 48m
Waning Crescent, 3% of the Moon is Illuminated
Apr 8
Waning Crescent
Apr 10
New
Apr 18
First Quarter
Apr 25
Full
May 2
Last Quarter

Hourly Weather History & Observations

Time (EDT) Temp. Dew Point Humidity Pressure Visibility Wind Dir Wind Speed Gust Speed Precip Events Conditions
12:53 AM 62.1 °F 55.0 °F 78% 30.15 in 10.0 mi Calm Calm - N/A   Clear
1:53 AM 59.0 °F 55.0 °F 87% 30.14 in 10.0 mi Calm Calm - N/A   Clear
2:53 AM 57.0 °F 54.0 °F 89% 30.14 in 10.0 mi Calm Calm - N/A   Clear
3:53 AM 55.9 °F 53.1 °F 90% 30.13 in 9.0 mi Calm Calm - N/A   Clear
4:53 AM 55.0 °F 53.1 °F 93% 30.13 in 8.0 mi Calm Calm - N/A   Clear
5:53 AM 54.0 °F 52.0 °F 93% 30.14 in 8.0 mi Calm Calm - N/A   Clear
6:53 AM 53.1 °F 52.0 °F 96% 30.16 in 7.0 mi Calm Calm - N/A   Clear
7:53 AM 55.0 °F 53.1 °F 93% 30.19 in 6.0 mi Calm Calm - N/A   Mostly Cloudy
8:53 AM 61.0 °F 55.9 °F 83% 30.19 in 9.0 mi Calm Calm - N/A   Overcast
9:53 AM 64.9 °F 55.9 °F 73% 30.20 in 10.0 mi Calm Calm - N/A   Mostly Cloudy
10:53 AM 69.1 °F 55.9 °F 63% 30.20 in 10.0 mi Calm Calm - N/A   Overcast
11:53 AM 75.0 °F 53.1 °F 46% 30.19 in 10.0 mi SSW 5.8 mph - N/A   Partly Cloudy
12:53 PM 78.1 °F 52.0 °F 40% 30.17 in 10.0 mi SW 8.1 mph - N/A   Clear
1:53 PM 79.0 °F 52.0 °F 39% 30.14 in 10.0 mi Variable 6.9 mph - N/A   Partly Cloudy
2:53 PM 79.0 °F 48.9 °F 35% 30.12 in 10.0 mi SSW 6.9 mph - N/A   Mostly Cloudy
3:53 PM 81.0 °F 50.0 °F 34% 30.10 in 10.0 mi SW 8.1 mph - N/A   Scattered Clouds
4:53 PM 82.0 °F 50.0 °F 33% 30.08 in 10.0 mi South 6.9 mph - N/A   Mostly Cloudy
5:53 PM 79.0 °F 50.0 °F 36% 30.09 in 10.0 mi SSW 5.8 mph - N/A   Scattered Clouds
6:53 PM 79.0 °F 50.0 °F 36% 30.09 in 10.0 mi SSW 5.8 mph - N/A   Clear
7:53 PM 75.9 °F 50.0 °F 40% 30.09 in 10.0 mi Calm Calm - N/A   Clear
8:53 PM 68.0 °F 54.0 °F 61% 30.11 in 10.0 mi Calm Calm - N/A   Clear
9:53 PM 70.0 °F 54.0 °F 57% 30.13 in 10.0 mi South 5.8 mph - N/A   Clear
10:53 PM 69.1 °F 55.9 °F 63% 30.14 in 10.0 mi South 5.8 mph - N/A   Clear
11:53 PM 66.9 °F 55.9 °F 68% 30.15 in 10.0 mi Variable 3.5 mph - N/A   Clear